Time,TemperatureF,DewpointF,PressureIn,WindDirection,WindDirectionDegrees,WindSpeedMPH,WindSpeedGustMPH,Humidity,HourlyPrecipIn,Conditions,Clouds,dailyrainin,SoftwareType,DateUTC
2015-01-30 00:04:00,23.5,19.1,29.93,NNE,23,0.0,0.0,83,0.00,,,0.00,WUHU216HW,2015-01-30 07:04:00,
2015-01-30 00:09:00,23.5,19.1,29.93,NNE,23,0.0,0.0,83,0.00,,,0.00,WUHU216HW,2015-01-30 07:09:00,
2015-01-30 00:14:00,23.5,19.1,29.93,NNE,23,0.0,0.0,83,0.00,,,0.00,WUHU216HW,2015-01-30 07:14:00,
2015-01-30 00:19:00,23.1,18.5,29.93,NNE,23,0.0,0.0,82,0.00,,,0.00,WUHU216HW,2015-01-30 07:19:00,
2015-01-30 00:24:00,23.1,18.7,29.92,NNE,23,0.0,0.0,83,0.00,,,0.00,WUHU216HW,2015-01-30 07:24:00,
2015-01-30 00:29:00,23.1,18.7,29.92,NNE,23,0.0,0.0,83,0.00,,,0.00,WUHU216HW,2015-01-30 07:29:00,
2015-01-30 00:34:00,23.1,18.7,29.92,NNE,23,0.0,0.0,83,0.00,,,0.00,WUHU216HW,2015-01-30 07:34:00,
2015-01-30 00:39:00,23.3,18.9,29.93,NNE,23,0.0,0.0,83,0.00,,,0.00,WUHU216HW,2015-01-30 07:39:00,
2015-01-30 00:44:00,23.3,19.2,29.93,NNE,23,0.0,0.0,84,0.00,,,0.00,WUHU216HW,2015-01-30 07:44:00,
2015-01-30 00:49:00,23.3,19.2,29.92,NNE,23,0.0,0.0,84,0.00,,,0.00,WUHU216HW,2015-01-30 07:49:00,
2015-01-30 00:54:00,23.5,19.4,29.93,NNE,23,0.0,0.0,84,0.00,,,0.00,WUHU216HW,2015-01-30 07:54:00,
2015-01-30 00:59:00,23.7,19.5,29.93,NNE,23,0.0,0.0,84,0.00,,,0.00,WUHU216HW,2015-01-30 07:59:00,
2015-01-30 01:04:00,23.7,19.5,29.92,NNE,23,0.0,0.0,84,0.00,,,0.00,WUHU216HW,2015-01-30 08:04:00,
2015-01-30 01:09:00,23.5,19.4,29.92,NNE,23,0.0,0.0,84,0.00,,,0.00,WUHU216HW,2015-01-30 08:09:00,
2015-01-30 01:14:00,23.3,19.2,29.92,NNE,23,0.0,0.0,84,0.00,,,0.00,WUHU216HW,2015-01-30 08:14:00,
2015-01-30 01:19:00,23.1,19.0,29.92,NNE,23,0.0,0.0,84,0.00,,,0.00,WUHU216HW,2015-01-30 08:19:00,
2015-01-30 01:24:00,23.0,18.6,29.92,NNE,23,0.0,0.0,83,0.00,,,0.00,WUHU216HW,2015-01-30 08:24:00,
2015-01-30 01:29:00,22.8,18.6,29.92,NNE,23,0.0,0.0,84,0.00,,,0.00,WUHU216HW,2015-01-30 08:29:00,
2015-01-30 01:34:00,22.4,18.3,29.92,NNE,23,0.0,0.0,84,0.00,,,0.00,WUHU216HW,2015-01-30 08:34:00,
2015-01-30 01:39:00,22.1,17.9,29.91,NNE,23,0.0,0.0,84,0.00,,,0.00,WUHU216HW,2015-01-30 08:39:00,
2015-01-30 01:44:00,21.9,17.7,29.92,NNE,23,0.0,0.0,84,0.00,,,0.00,WUHU216HW,2015-01-30 08:44:00,
2015-01-30 01:49:00,21.9,17.7,29.91,NNE,23,0.0,0.0,84,0.00,,,0.00,WUHU216HW,2015-01-30 08:49:00,
2015-01-30 01:54:00,21.9,17.7,29.91,NNE,23,0.0,0.0,84,0.00,,,0.00,WUHU216HW,2015-01-30 08:54:00,
2015-01-30 01:59:00,22.2,18.1,29.91,NNE,23,0.0,0.0,84,0.00,,,0.00,WUHU216HW,2015-01-30 08:59:00,
2015-01-30 02:04:00,22.4,18.3,29.91,NNE,23,0.0,0.0,84,0.00,,,0.00,WUHU216HW,2015-01-30 09:04:00,
2015-01-30 02:09:00,22.8,18.6,29.91,NNE,23,0.0,0.0,84,0.00,,,0.00,WUHU216HW,2015-01-30 09:09:00,
2015-01-30 02:14:00,23.0,18.8,29.91,NNE,23,0.0,0.0,84,0.00,,,0.00,WUHU216HW,2015-01-30 09:14:00,
2015-01-30 02:19:00,23.1,19.3,29.91,NNE,23,0.0,0.0,85,0.00,,,0.00,WUHU216HW,2015-01-30 09:19:00,
2015-01-30 02:24:00,23.5,19.6,29.91,NNE,23,0.0,0.0,85,0.00,,,0.00,WUHU216HW,2015-01-30 09:24:00,
2015-01-30 02:29:00,23.3,19.4,29.91,NNE,23,0.0,0.0,85,0.00,,,0.00,WUHU216HW,2015-01-30 09:29:00,
2015-01-30 02:34:00,23.1,19.3,29.91,NNE,23,0.0,0.0,85,0.00,,,0.00,WUHU216HW,2015-01-30 09:34:00,
2015-01-30 02:39:00,23.3,19.4,29.91,NNE,23,0.0,0.0,85,0.00,,,0.00,WUHU216HW,2015-01-30 09:39:00,
2015-01-30 02:44:00,23.5,19.6,29.91,NNE,23,0.0,0.0,85,0.00,,,0.00,WUHU216HW,2015-01-30 09:44:00,
2015-01-30 02:49:00,23.9,20.0,29.91,NNE,23,0.0,0.0,85,0.00,,,0.00,WUHU216HW,2015-01-30 09:49:00,
2015-01-30 02:54:00,24.0,20.2,29.91,NNE,23,0.0,0.0,85,0.00,,,0.00,WUHU216HW,2015-01-30 09:54:00,
2015-01-30 02:59:00,24.0,20.2,29.92,NNE,23,0.0,0.0,85,0.00,,,0.00,WUHU216HW,2015-01-30 09:59:00,
2015-01-30 03:04:00,24.2,20.3,29.91,NNE,23,0.0,0.0,85,0.00,,,0.00,WUHU216HW,2015-01-30 10:04:00,
2015-01-30 03:09:00,24.4,20.5,29.91,NNE,23,0.0,0.0,85,0.00,,,0.00,WUHU216HW,2015-01-30 10:09:00,
2015-01-30 03:14:00,24.0,20.2,29.91,NNE,23,0.0,0.0,85,0.00,,,0.00,WUHU216HW,2015-01-30 10:14:00,
2015-01-30 03:19:00,23.9,20.0,29.91,NNE,23,0.0,0.0,85,0.00,,,0.00,WUHU216HW,2015-01-30 10:19:00,
2015-01-30 03:24:00,23.9,20.0,29.90,NNE,23,0.0,0.0,85,0.00,,,0.00,WUHU216HW,2015-01-30 10:24:00,
2015-01-30 03:29:00,24.0,20.2,29.91,NNE,23,0.0,0.0,85,0.00,,,0.00,WUHU216HW,2015-01-30 10:29:00,
2015-01-30 03:34:00,24.0,20.2,29.90,NNE,23,0.0,0.0,85,0.00,,,0.00,WUHU216HW,2015-01-30 10:34:00,
2015-01-30 03:39:00,24.0,20.2,29.90,NNE,23,0.0,0.0,85,0.00,,,0.00,WUHU216HW,2015-01-30 10:39:00,
2015-01-30 03:44:00,23.9,20.0,29.90,NNE,23,0.0,0.0,85,0.00,,,0.00,WUHU216HW,2015-01-30 10:44:00,
2015-01-30 03:49:00,23.7,19.8,29.90,NNE,23,0.0,0.0,85,0.00,,,0.00,WUHU216HW,2015-01-30 10:49:00,
2015-01-30 03:54:00,23.7,20.1,29.90,NNE,23,0.0,0.0,86,0.00,,,0.00,WUHU216HW,2015-01-30 10:54:00,
2015-01-30 03:59:00,24.0,20.4,29.90,NNE,23,0.0,0.0,86,0.00,,,0.00,WUHU216HW,2015-01-30 10:59:00,
2015-01-30 04:04:00,24.4,20.8,29.90,NNE,23,0.0,0.0,86,0.00,,,0.00,WUHU216HW,2015-01-30 11:04:00,
2015-01-30 04:09:00,24.6,21.0,29.90,NNE,23,0.0,0.0,86,0.00,,,0.00,WUHU216HW,2015-01-30 11:09:00,
2015-01-30 04:14:00,24.9,21.3,29.90,NNE,23,0.0,0.0,86,0.00,,,0.00,WUHU216HW,2015-01-30 11:14:00,
2015-01-30 04:19:00,24.9,21.3,29.90,NNE,23,0.0,0.0,86,0.00,,,0.00,WUHU216HW,2015-01-30 11:19:00,
2015-01-30 04:24:00,24.6,21.0,29.90,NNE,23,0.0,0.0,86,0.00,,,0.00,WUHU216HW,2015-01-30 11:24:00,
2015-01-30 04:29:00,24.6,21.0,29.90,NNE,23,0.0,0.0,86,0.00,,,0.00,WUHU216HW,2015-01-30 11:29:00,
2015-01-30 04:34:00,24.4,20.8,29.90,NNE,23,0.0,0.0,86,0.00,,,0.00,WUHU216HW,2015-01-30 11:34:00,
2015-01-30 04:39:00,24.6,21.0,29.90,NNE,23,0.0,0.0,86,0.00,,,0.00,WUHU216HW,2015-01-30 11:39:00,
2015-01-30 04:44:00,25.3,21.7,29.90,NNE,23,0.0,0.0,86,0.00,,,0.00,WUHU216HW,2015-01-30 11:44:00,
2015-01-30 04:49:00,25.5,21.8,29.89,NNE,23,0.0,0.0,86,0.00,,,0.00,WUHU216HW,2015-01-30 11:49:00,
2015-01-30 04:54:00,25.5,21.8,29.90,NNE,23,0.0,0.0,86,0.00,,,0.00,WUHU216HW,2015-01-30 11:54:00,
2015-01-30 04:59:00,25.8,22.2,29.89,NNE,23,0.0,0.0,86,0.00,,,0.00,WUHU216HW,2015-01-30 11:59:00,
2015-01-30 05:04:00,25.8,22.5,29.89,NNE,23,0.0,0.0,87,0.00,,,0.00,WUHU216HW,2015-01-30 12:04:00,
2015-01-30 05:09:00,26.0,22.6,29.89,NNE,23,0.0,0.0,87,0.00,,,0.00,WUHU216HW,2015-01-30 12:09:00,
2015-01-30 05:14:00,26.2,22.8,29.89,NNE,23,0.0,0.0,87,0.00,,,0.00,WUHU216HW,2015-01-30 12:14:00,
2015-01-30 05:19:00,26.2,22.8,29.88,NNE,23,0.0,0.0,87,0.00,,,0.00,WUHU216HW,2015-01-30 12:19:00,
2015-01-30 05:24:00,26.4,23.0,29.89,NNE,23,0.0,0.0,87,0.00,,,0.00,WUHU216HW,2015-01-30 12:24:00,
2015-01-30 05:29:00,26.6,23.2,29.89,NNE,23,0.0,0.0,87,0.00,,,0.00,WUHU216HW,2015-01-30 12:29:00,
2015-01-30 05:34:00,26.7,23.3,29.89,NNE,23,0.0,0.0,87,0.00,,,0.00,WUHU216HW,2015-01-30 12:34:00,
2015-01-30 05:39:00,26.9,23.5,29.89,NNE,23,0.0,0.0,87,0.00,,,0.00,WUHU216HW,2015-01-30 12:39:00,
2015-01-30 05:44:00,26.9,23.5,29.89,NNE,23,0.0,0.0,87,0.00,,,0.00,WUHU216HW,2015-01-30 12:44:00,
2015-01-30 05:49:00,26.9,23.5,29.89,NNE,23,0.0,0.0,87,0.00,,,0.00,WUHU216HW,2015-01-30 12:49:00,
2015-01-30 05:54:00,26.7,23.3,29.89,NNE,23,0.0,0.0,87,0.00,,,0.00,WUHU216HW,2015-01-30 12:54:00,
2015-01-30 05:59:00,26.4,23.0,29.89,NNE,23,0.0,0.0,87,0.00,,,0.00,WUHU216HW,2015-01-30 12:59:00,
2015-01-30 06:04:00,26.6,23.2,29.89,NNE,23,0.0,0.0,87,0.00,,,0.00,WUHU216HW,2015-01-30 13:04:00,
2015-01-30 06:09:00,27.1,23.7,29.89,NNE,23,0.0,0.0,87,0.00,,,0.00,WUHU216HW,2015-01-30 13:09:00,
2015-01-30 06:14:00,27.1,23.7,29.89,NNE,23,0.0,0.0,87,0.00,,,0.00,WUHU216HW,2015-01-30 13:14:00,
2015-01-30 06:19:00,27.5,24.1,29.89,NNE,23,0.0,0.0,87,0.00,,,0.00,WUHU216HW,2015-01-30 13:19:00,
2015-01-30 06:24:00,27.6,24.5,29.89,NNE,23,0.0,0.0,88,0.00,,,0.00,WUHU216HW,2015-01-30 13:24:00,
2015-01-30 06:29:00,28.0,24.9,29.89,NNE,23,0.0,0.0,88,0.00,,,0.00,WUHU216HW,2015-01-30 13:29:00,
2015-01-30 06:34:00,28.5,25.1,29.89,NNE,23,0.0,0.0,87,0.00,,,0.00,WUHU216HW,2015-01-30 13:34:00,
2015-01-30 06:39:00,29.1,25.7,29.89,NNE,23,0.0,0.0,87,0.00,,,0.00,WUHU216HW,2015-01-30 13:39:00,
2015-01-30 06:44:00,29.4,26.0,29.89,NNE,23,0.0,0.0,87,0.00,,,0.00,WUHU216HW,2015-01-30 13:44:00,
2015-01-30 06:49:00,29.8,26.4,29.89,NNE,23,0.0,0.0,87,0.00,,,0.00,WUHU216HW,2015-01-30 13:49:00,
2015-01-30 06:54:00,30.0,26.6,29.89,NNE,23,0.0,0.0,87,0.00,,,0.00,WUHU216HW,2015-01-30 13:54:00,
2015-01-30 06:59:00,30.3,26.9,29.89,NNE,23,0.0,0.0,87,0.00,,,0.00,WUHU216HW,2015-01-30 13:59:00,
2015-01-30 07:04:00,30.3,26.9,29.89,NNE,23,0.0,0.0,87,0.00,,,0.00,WUHU216HW,2015-01-30 14:04:00,
2015-01-30 07:09:00,30.0,26.3,29.89,NNE,23,0.0,0.0,86,0.00,,,0.00,WUHU216HW,2015-01-30 14:09:00,
2015-01-30 07:14:00,30.0,26.3,29.89,NNE,23,0.0,0.0,86,0.00,,,0.00,WUHU216HW,2015-01-30 14:14:00,
2015-01-30 07:19:00,30.0,26.0,29.89,NNE,23,0.0,0.0,85,0.00,,,0.00,WUHU216HW,2015-01-30 14:19:00,
2015-01-30 07:24:00,29.8,25.8,29.89,NNE,23,0.0,0.0,85,0.00,,,0.00,WUHU216HW,2015-01-30 14:24:00,
2015-01-30 07:29:00,29.6,25.7,29.88,NNE,23,0.0,0.0,85,0.00,,,0.00,WUHU216HW,2015-01-30 14:29:00,
2015-01-30 07:34:00,29.6,25.7,29.89,NNE,23,0.0,0.0,85,0.00,,,0.00,WUHU216HW,2015-01-30 14:34:00,
2015-01-30 07:39:00,29.4,25.5,29.89,NNE,23,0.0,0.0,85,0.00,,,0.00,WUHU216HW,2015-01-30 14:39:00,
2015-01-30 07:45:00,29.4,25.5,29.89,NNE,23,0.0,0.0,85,0.00,,,0.00,WUHU216HW,2015-01-30 14:45:00,
2015-01-30 07:50:00,29.3,25.0,29.90,NNE,23,0.0,0.0,84,0.00,,,0.00,WUHU216HW,2015-01-30 14:50:00,
2015-01-30 07:55:00,29.3,25.0,29.89,NNE,23,0.0,0.0,84,0.00,,,0.00,WUHU216HW,2015-01-30 14:55:00,
2015-01-30 08:00:00,29.3,25.0,29.89,NNE,23,0.0,0.0,84,0.00,,,0.00,WUHU216HW,2015-01-30 15:00:00,
2015-01-30 08:05:00,29.3,25.3,29.89,NNE,23,0.0,0.0,85,0.00,,,0.00,WUHU216HW,2015-01-30 15:05:00,
2015-01-30 08:10:00,29.4,25.5,29.89,NNE,23,0.0,0.0,85,0.00,,,0.00,WUHU216HW,2015-01-30 15:10:00,
2015-01-30 08:15:00,29.8,25.8,29.89,NNE,23,0.0,0.0,85,0.00,,,0.00,WUHU216HW,2015-01-30 15:15:00,
2015-01-30 08:20:00,30.0,26.0,29.89,NNE,23,0.0,0.0,85,0.00,,,0.00,WUHU216HW,2015-01-30 15:20:00,
2015-01-30 08:25:00,30.0,26.0,29.89,NNE,23,0.0,0.0,85,0.00,,,0.00,WUHU216HW,2015-01-30 15:25:00,
2015-01-30 08:30:00,30.5,26.6,29.89,NNE,23,0.0,0.0,85,0.00,,,0.00,WUHU216HW,2015-01-30 15:30:00,
2015-01-30 08:35:00,30.7,26.7,29.89,NNE,23,0.0,0.0,85,0.00,,,0.00,WUHU216HW,2015-01-30 15:35:00,
2015-01-30 08:40:00,31.1,27.1,29.89,NNE,23,0.0,0.0,85,0.00,,,0.00,WUHU216HW,2015-01-30 15:40:00,
2015-01-30 08:45:00,31.2,27.0,29.89,North,0,0.0,0.0,84,0.00,,,0.00,WUHU216HW,2015-01-30 15:45:00,
2015-01-30 08:50:00,31.6,27.3,29.89,North,0,0.0,0.0,84,0.00,,,0.00,WUHU216HW,2015-01-30 15:50:00,
2015-01-30 08:55:00,31.8,27.5,29.89,North,0,0.0,0.0,84,0.00,,,0.00,WUHU216HW,2015-01-30 15:55:00,
2015-01-30 09:00:00,32.1,27.9,29.89,North,0,1.5,1.5,84,0.00,,,0.00,WUHU216HW,2015-01-30 16:00:00,
2015-01-30 09:05:00,32.5,27.9,29.89,North,0,0.0,3.5,83,0.00,,,0.00,WUHU216HW,2015-01-30 16:05:00,
2015-01-30 09:10:00,32.7,28.1,29.89,North,0,0.0,3.5,83,0.00,,,0.00,WUHU216HW,2015-01-30 16:10:00,
2015-01-30 09:15:00,33.2,28.3,29.89,North,0,0.0,1.7,82,0.00,,,0.00,WUHU216HW,2015-01-30 16:15:00,
2015-01-30 09:20:00,33.6,28.6,29.89,North,0,0.0,1.7,82,0.00,,,0.00,WUHU216HW,2015-01-30 16:20:00,
2015-01-30 09:25:00,33.9,28.9,29.89,North,0,0.0,1.7,82,0.00,,,0.00,WUHU216HW,2015-01-30 16:25:00,
2015-01-30 09:30:00,34.7,29.6,29.89,North,0,0.0,4.0,82,0.00,,,0.00,WUHU216HW,2015-01-30 16:30:00,
2015-01-30 09:35:00,35.4,30.4,29.89,North,0,0.0,4.0,82,0.00,,,0.00,WUHU216HW,2015-01-30 16:35:00,
2015-01-30 09:40:00,36.1,30.8,29.89,North,0,0.6,0.6,81,0.00,,,0.00,WUHU216HW,2015-01-30 16:40:00,
2015-01-30 09:45:00,37.2,31.6,29.89,North,0,3.8,3.8,80,0.00,,,0.00,WUHU216HW,2015-01-30 16:45:00,
2015-01-30 09:50:00,37.7,31.5,29.89,North,0,0.0,3.8,78,0.00,,,0.00,WUHU216HW,2015-01-30 16:50:00,
2015-01-30 09:55:00,37.9,31.3,29.89,North,0,1.1,3.8,77,0.00,,,0.00,WUHU216HW,2015-01-30 16:55:00,
2015-01-30 10:00:00,38.3,31.3,29.88,North,0,0.0,2.9,76,0.00,,,0.00,WUHU216HW,2015-01-30 17:00:00,
2015-01-30 10:05:00,38.4,31.2,29.88,North,0,0.0,0.0,75,0.00,,,0.00,WUHU216HW,2015-01-30 17:05:00,
2015-01-30 10:10:00,39.0,32.0,29.88,North,0,1.3,1.3,76,0.00,,,0.00,WUHU216HW,2015-01-30 17:10:00,
2015-01-30 10:15:00,39.9,32.2,29.89,North,0,0.0,1.3,74,0.00,,,0.00,WUHU216HW,2015-01-30 17:15:00,
2015-01-30 10:20:00,40.8,32.7,29.89,North,0,0.0,0.0,73,0.00,,,0.00,WUHU216HW,2015-01-30 17:20:00,
2015-01-30 10:25:00,41.5,32.8,29.89,North,0,4.9,4.9,71,0.00,,,0.00,WUHU216HW,2015-01-30 17:25:00,
2015-01-30 10:30:00,42.2,32.0,29.89,North,0,0.0,4.9,67,0.00,,,0.00,WUHU216HW,2015-01-30 17:30:00,
2015-01-30 10:35:00,42.0,31.5,29.89,North,0,1.1,3.5,66,0.00,,,0.00,WUHU216HW,2015-01-30 17:35:00,
2015-01-30 10:40:00,42.4,31.4,29.89,North,0,0.0,3.5,65,0.00,,,0.00,WUHU216HW,2015-01-30 17:40:00,
2015-01-30 10:45:00,42.4,30.6,29.89,NNE,23,0.0,3.3,63,0.00,,,0.00,WUHU216HW,2015-01-30 17:45:00,
2015-01-30 10:50:00,42.4,30.2,29.89,North,0,0.0,3.3,62,0.00,,,0.00,WUHU216HW,2015-01-30 17:50:00,
2015-01-30 10:55:00,42.6,30.0,29.88,North,0,0.0,0.0,61,0.00,,,0.00,WUHU216HW,2015-01-30 17:55:00,
2015-01-30 11:00:00,42.6,29.2,29.88,North,0,1.5,5.1,59,0.00,,,0.00,WUHU216HW,2015-01-30 18:00:00,
2015-01-30 11:05:00,42.9,29.5,29.88,North,0,0.0,5.1,59,0.00,,,0.00,WUHU216HW,2015-01-30 18:05:00,
2015-01-30 11:10:00,43.8,29.2,29.88,North,0,0.0,1.5,57,0.00,,,0.00,WUHU216HW,2015-01-30 18:10:00,
2015-01-30 11:15:00,44.4,28.7,29.88,North,0,0.0,0.0,54,0.00,,,0.00,WUHU216HW,2015-01-30 18:15:00,
2015-01-30 11:20:00,44.9,28.8,29.88,North,0,0.4,0.4,53,0.00,,,0.00,WUHU216HW,2015-01-30 18:20:00,
2015-01-30 11:25:00,45.1,27.0,29.87,North,0,0.0,1.7,49,0.00,,,0.00,WUHU216HW,2015-01-30 18:25:00,
2015-01-30 11:30:00,45.5,25.7,29.88,North,0,0.0,1.7,46,0.00,,,0.00,WUHU216HW,2015-01-30 18:30:00,
2015-01-30 11:35:00,45.5,24.7,29.88,North,0,0.0,0.0,44,0.00,,,0.00,WUHU216HW,2015-01-30 18:35:00,
2015-01-30 11:40:00,45.5,23.7,29.88,NNE,23,7.3,7.3,44,0.00,,,0.00,WUHU216HW,2015-01-30 18:40:00,
2015-01-30 11:45:00,45.6,23.2,29.88,NNE,23,0.0,7.3,41,0.00,,,0.00,WUHU216HW,2015-01-30 18:45:00,
2015-01-30 11:50:00,45.6,23.2,29.88,NNE,23,0.6,7.3,41,0.00,,,0.00,WUHU216HW,2015-01-30 18:50:00,
2015-01-30 11:55:00,46.0,23.5,29.87,NNE,23,6.9,6.9,41,0.00,,,0.00,WUHU216HW,2015-01-30 18:55:00,
2015-01-30 12:00:00,45.6,23.2,29.87,NNE,23,0.0,6.9,41,0.00,,,0.00,WUHU216HW,2015-01-30 19:00:00,
2015-01-30 12:05:00,45.8,23.4,29.87,NNE,23,0.0,6.9,41,0.00,,,0.00,WUHU216HW,2015-01-30 19:05:00,
2015-01-30 12:10:00,46.2,23.7,29.88,NNE,23,0.0,0.0,41,0.00,,,0.00,WUHU216HW,2015-01-30 19:10:00,
2015-01-30 12:15:00,46.2,23.1,29.88,NNE,23,0.0,0.0,40,0.00,,,0.00,WUHU216HW,2015-01-30 19:15:00,
2015-01-30 12:20:00,46.2,23.1,29.87,NNE,23,0.0,0.0,40,0.00,,,0.00,WUHU216HW,2015-01-30 19:20:00,
2015-01-30 12:25:00,46.2,23.1,29.87,NNE,23,0.0,0.0,40,0.00,,,0.00,WUHU216HW,2015-01-30 19:25:00,
2015-01-30 12:30:00,46.4,23.3,29.87,NNE,23,0.0,0.0,40,0.00,,,0.00,WUHU216HW,2015-01-30 19:30:00,
2015-01-30 12:35:00,46.7,23.6,29.87,NNE,23,0.0,0.0,40,0.00,,,0.00,WUHU216HW,2015-01-30 19:35:00,
2015-01-30 12:40:00,46.9,22.5,29.87,NNE,23,0.0,0.0,38,0.00,,,0.00,WUHU216HW,2015-01-30 19:40:00,
2015-01-30 12:45:00,47.1,22.6,29.86,NNE,23,0.0,0.0,38,0.00,,,0.00,WUHU216HW,2015-01-30 19:45:00,
2015-01-30 12:50:00,46.7,21.6,29.86,NNE,23,0.0,0.0,37,0.00,,,0.00,WUHU216HW,2015-01-30 19:50:00,
2015-01-30 12:55:00,46.5,21.8,29.86,NNE,23,0.0,0.0,38,0.00,,,0.00,WUHU216HW,2015-01-30 19:55:00,
2015-01-30 13:00:00,46.0,21.7,29.86,NNE,23,0.0,0.8,38,0.00,,,0.00,WUHU216HW,2015-01-30 20:00:00,
2015-01-30 13:05:00,45.6,21.3,29.86,NNE,23,0.0,0.8,38,0.00,,,0.00,WUHU216HW,2015-01-30 20:05:00,
2015-01-30 13:10:00,45.5,21.2,29.86,NNE,23,2.4,2.4,38,0.00,,,0.00,WUHU216HW,2015-01-30 20:10:00,
2015-01-30 13:15:00,45.5,21.8,29.85,NNE,23,0.0,2.4,39,0.00,,,0.00,WUHU216HW,2015-01-30 20:15:00,
2015-01-30 13:20:00,45.6,21.3,29.85,NNE,23,0.0,2.4,38,0.00,,,0.00,WUHU216HW,2015-01-30 20:20:00,
2015-01-30 13:25:00,45.8,21.5,29.85,NNE,23,0.0,2.0,38,0.00,,,0.00,WUHU216HW,2015-01-30 20:25:00,
2015-01-30 13:30:00,46.0,21.0,29.85,NNE,23,0.0,2.0,37,0.00,,,0.00,WUHU216HW,2015-01-30 20:30:00,
2015-01-30 13:35:00,46.0,21.0,29.84,NNE,23,3.8,3.8,37,0.00,,,0.00,WUHU216HW,2015-01-30 20:35:00,
2015-01-30 13:40:00,45.6,20.7,29.83,NNE,23,0.0,3.8,37,0.00,,,0.00,WUHU216HW,2015-01-30 20:40:00,
2015-01-30 13:45:00,45.3,21.0,29.83,NNE,23,0.0,0.0,38,0.00,,,0.00,WUHU216HW,2015-01-30 20:45:00,
2015-01-30 13:50:00,45.5,20.5,29.83,NNE,23,0.0,0.0,37,0.00,,,0.00,WUHU216HW,2015-01-30 20:50:00,
2015-01-30 13:55:00,45.1,20.2,29.83,NNE,23,3.8,3.8,37,0.00,,,0.00,WUHU216HW,2015-01-30 20:55:00,
2015-01-30 14:00:00,45.1,20.2,29.83,NNE,23,0.0,3.8,37,0.00,,,0.00,WUHU216HW,2015-01-30 21:00:00,
2015-01-30 14:05:00,44.9,20.0,29.83,NNE,23,0.0,3.8,37,0.00,,,0.00,WUHU216HW,2015-01-30 21:05:00,
2015-01-30 14:10:00,44.7,20.5,29.83,NNE,23,0.0,7.1,38,0.00,,,0.00,WUHU216HW,2015-01-30 21:10:00,
2015-01-30 14:15:00,44.7,21.2,29.83,NNE,23,0.0,7.1,39,0.00,,,0.00,WUHU216HW,2015-01-30 21:15:00,